Livigno, Italy 16 day weather forecast

Slopes altitude range 1815 m - 2795m

Number of lifts: 30 Pistes: 115km

In some cases the lift and piste totals shown are for the ski domain (e.g. Three Valleys) rather than individual resort (e.g. Courchevel)

Overview

The 16 day weather forecast is fully updated 4 times every day.

    • Fri 18 JAN 2019
    • Fri 18
    • -17C -12C
    • Sat 19 JAN 2019
    • Sat 19
    • -14C -9C
    • Sun 20 JAN 2019
    • Sun 20
    • -19C -9C
    • Mon 21 JAN 2019
    • Mon 21
    • -18C -10C
    • Tue 22 JAN 2019
    • Tue 22
    • -19C -9C
    • Wed 23 JAN 2019
    • Wed 23
    • -17C -13C
    • Thu 24 JAN 2019
    • Thu 24
    • -17C -13C
    • Fri 25 JAN 2019
    • Fri 25
    • -10C -8C
    • Sat 26 JAN 2019
    • Sat 26
    • -19C -13C
    • Sun 27 JAN 2019
    • Sun 27
    • -21C -13C
    • Mon 28 JAN 2019
    • Mon 28
    • -20C -13C
    • Tue 29 JAN 2019
    • Tue 29
    • -19C -10C
    • Wed 30 JAN 2019
    • Wed 30
    • -16C -7C
    • Thu 31 JAN 2019
    • Thu 31
    • -10C -2C
    • Fri 01 FEB 2019
    • Fri 01
    • -5C -1C
    • Sat 02 FEB 2019
    • Sat 02
    • -6C -3C

Date:

Time Type 0°C level Temp Chill Snow Cloud Speed Gust Dir Press
3:00 458m -13°C -13_13 1cm 98% 13mph 16mph 1015mB
6:00 0m -17°C -17_12 1cm 92% 12mph 14mph 1017mB
9:00 368m -17°C -17_12 1cm 87% 12mph 14mph 1018mB
12:00 688m -12°C -12_8 1cm 65% 8mph 9mph 1017mB
15:00 287m -11°C -11_2 0cm 63% 2mph 3mph 1018mB
18:00 19m -11°C -11_4 0cm 81% 4mph 4mph 1020mB
21:00 0m -17°C -17_6 0cm 100% 6mph 6mph 1021mB
0:00 84m -17°C -17_6 0cm 100% 6mph 6mph 1020mB
3:00 303m -15°C -15_5 1cm 100% 5mph 6mph 1019mB
6:00 337m -15°C -15_5 1cm 100% 5mph 6mph 1019mB
9:00 686m -14°C -14_6 1cm 99% 6mph 7mph 1018mB
12:00 1055m -9°C -9_6 1cm 100% 6mph 7mph 1015mB
15:00 938m -9°C -9_5 1cm 94% 5mph 5mph 1014mB
18:00 129m -9°C -9_4 1cm 75% 4mph 4mph 1016mB
21:00 0m -17°C -17_3 0cm 59% 3mph 4mph 1017mB
0:00 1m -18°C -18_3 0cm 76% 3mph 4mph 1017mB
3:00 0m -19°C -19_1 0cm 96% 1mph 2mph 1016mB
6:00 0m -19°C -19_2 0cm 92% 2mph 3mph 1016mB
9:00 431m -19°C -19_1 0cm 90% 1mph 2mph 1016mB
12:00 1019m -9°C -9_1 0cm 94% 1mph 1mph 1015mB
15:00 725m -9°C -9_2 0cm 83% 2mph 2mph 1015mB
18:00 363m -9°C -9_5 1cm 88% 5mph 5mph 1017mB
21:00 309m -14°C -14_4 1cm 100% 4mph 4mph 1019mB
0:00 119m -15°C -15_4 1cm 100% 4mph 5mph 1020mB
3:00 0m -17°C -17_5 0cm 83% 5mph 6mph 1020mB
6:00 0m -18°C -18_6 0cm 67% 6mph 7mph 1021mB
9:00 435m -18°C -18_4 0cm 23% 4mph 5mph 1022mB
12:00 969m -10°C -10_2 0cm 11% 2mph 2mph 1020mB
15:00 686m -9°C -9_4 0cm 2% 4mph 5mph 1019mB
18:00 0m -9°C -9_7 0cm 7% 7mph 7mph 1021mB
21:00 0m -18°C -18_5 0cm 71% 5mph 5mph 1021mB
0:00 0m -18°C -18_5 0cm 86% 5mph 5mph 1020mB
3:00 0m -18°C -18_5 0cm 97% 5mph 6mph 1016mB
6:00 0m -19°C -19_4 0cm 50% 4mph 5mph 1014mB
9:00 441m -19°C -19_0 0cm 0% 0mph 2mph 1010mB
12:00 1155m -9°C -9_6 0cm 0% 6mph 7mph 1004mB
15:00 667m -8°C -8_6 0cm 0% 6mph 7mph 1001mB
18:00 0m -8°C -8_4 0cm 0% 4mph 4mph 1000mB
21:00 0m -21°C -21_2 0cm 27% 2mph 2mph 1000mB
0:00 0m -21°C -21_6 0cm 53% 6mph 6mph 999mB
3:00 0m -19°C -19_7 0cm 100% 7mph 8mph 997mB
6:00 0m -19°C -19_6 1cm 100% 6mph 7mph 995mB
9:00 162m -17°C -17_7 1cm 100% 7mph 8mph 994mB
12:00 441m -13°C -13_9 2cm 100% 9mph 10mph 990mB
15:00 347m -13°C -13_12 3cm 100% 12mph 15mph 988mB
18:00 61m -13°C -13_12 3cm 100% 12mph 16mph 988mB
21:00 26m -16°C -16_9 2cm 100% 9mph 13mph 989mB
0:00 68m -16°C -16_5 1cm 100% 5mph 6mph 990mB
3:00 0m -16°C -16_7 1cm 100% 7mph 7mph 990mB
6:00 0m -17°C -17_10 1cm 100% 10mph 11mph 990mB
9:00 63m -17°C -17_13 1cm 100% 13mph 16mph 991mB
12:00 504m -13°C -13_16 1cm 100% 16mph 19mph 988mB
15:00 440m -13°C -13_15 1cm 100% 15mph 19mph 990mB
18:00 171m -13°C -13_12 1cm 100% 12mph 15mph 994mB
21:00 40m -16°C -16_13 1cm 100% 13mph 14mph 995mB
0:00 217m -16°C -16_13 1cm 100% 13mph 15mph 996mB
3:00 296m -15°C -15_13 1cm 100% 13mph 15mph 996mB
6:00 313m -15°C -15_13 1cm 100% 13mph 16mph 998mB
9:00 489m -10°C -10_5 1cm 100% 5mph 7mph 1002mB
12:00 672m -8°C -8_6 1cm 99% 6mph 8mph 1002mB
15:00 510m -8°C -8_6 1cm 99% 6mph 8mph 1003mB
18:00 107m -8°C -8_4 1cm 99% 4mph 5mph 1006mB
21:00 0m -14°C -14_2 1cm 96% 2mph 3mph 1008mB
0:00 0m -16°C -16_2 1cm 94% 2mph 2mph 1008mB
3:00 0m -18°C -18_2 0cm 83% 2mph 3mph 1009mB
6:00 0m -18°C -18_3 0cm 87% 3mph 4mph 1010mB
9:00 0m -19°C -19_3 0cm 80% 3mph 3mph 1010mB
12:00 0m -13°C -13_4 0cm 80% 4mph 4mph 1009mB
15:00 0m -13°C -13_4 0cm 91% 4mph 5mph 1010mB
18:00 0m -13°C -13_4 0cm 89% 4mph 4mph 1013mB
21:00 0m -20°C -20_5 0cm 72% 5mph 6mph 1014mB
0:00 0m -21°C -21_5 0cm 51% 5mph 6mph 1013mB
3:00 0m -21°C -21_5 0cm 0% 5mph 6mph 1013mB
6:00 0m -21°C -21_5 0cm 0% 5mph 6mph 1012mB
9:00 0m -21°C -21_4 0cm 7% 4mph 4mph 1011mB
12:00 0m -13°C -13_4 0cm 29% 4mph 4mph 1008mB
15:00 0m -13°C -13_4 0cm 85% 4mph 5mph 1008mB
18:00 0m -13°C -13_3 0cm 90% 3mph 3mph 1010mB
Morning 0.0729167mm 0 0m -20°C -20_2 1cm 88% 2mph 3mph 1012mB
Afternoon 0.046875mm 0 0m -13°C -13_1 1cm 86% 1mph 2mph 1013mB
Morning 0.0208333mm 0 0m -20°C -20_4 0cm 66% 4mph 4mph 1015mB
Afternoon 0.03125mm 0 0m -10°C -10_4 1cm 66% 4mph 4mph 1015mB
Morning 0.00520833mm 0 0m -16°C -16_9 0cm 15% 9mph 9mph 1017mB
Afternoon 0mm 0 0m -7°C -7_9 0cm 11% 9mph 9mph 1016mB
Morning 0mm 0 266m -14°C -14_10 0cm 60% 10mph 17mph 1015mB
Afternoon 0.046875mm 0 1110m -2°C -2_9 1cm 100% 9mph 15mph 1010mB
Morning 0.203125mm 0 1033m -5°C -5_8 2cm 100% 8mph 13mph 1008mB
Afternoon 0.447917mm 1.5625 1181m -1°C -1_6 12cm 100% 6mph 7mph 1009mB
Morning 0.473958mm 0 892m -6°C -6_4 4cm 100% 4mph 5mph 1013mB
Afternoon 0.489583mm 0.0625 911m -3°C -3_5 4cm 100% 5mph 9mph 1012mB

16 day outlook at a glance

Forecast issued: 17/01/2019 23:45:31

Chat

Your comments and questions. In a resort? Let us know what it's like!


Characters left 250

For terms and conditions see Readers Comments on the Cookie and privacy policy page.